Temp
-4 -4 -5 -5 -5 -5 -5 -5 -5 -5 -5 -5 -5 -4 -4 -4 -4 -5 -4 -4 -4 -4 -4 -4 -4 -4 -4 -5 -5 -5 -5 -5 -5 -5 -5 -5 -5 -6 -6 -6 -6 -6
-4 -4 -5 -5 -5 -5 -5 -5 -5 -5 -5 -5 -4 -4 -5 -5 -4 -4 -4 -4 -4 -4 -4 -4 -4 -4 -4 -5 -5 -5 -5 -5 -5 -5 -5 -5 -6 -6 -6 -6 -6 -6
-4 -4 -5 -5 -5 -5 -5 -5 -5 -5 -5 -4 -4 -4 -5 -4 -4 -4 -4 -4 -4 -4 -4 -4 -4 -4 -5 -5 -5 -5 -5 -5 -5 -6 -6 -6 -6 -6 -6 -6 -6 -6
-4 -4 -5 -5 -5 -5 -4 -4 -5 -5 -4 -4 -4 -4 -4 -4 -4 -4 -4 -4 -4 -4 -4 -4 -4 -4 -5 -5 -5 -5 -5 -5 -6 -6 -6 -6 -6 -6 -6 -6 -6 -6
-4 -4 -4 -5 -5 -4 -4 -4 -5 -5 -5 -4 -4 -4 -5 -4 -4 -4 -4 -4 -4 -4 -4 -4 -5 -5 -5 -5 -5 -5 -5 -5 -6 -6 -6 -6 -6 -6 -6 -6 -6 -6
-4 -4 -4 -4 -4 -4 -4 -4 -5 -5 -5 -5 -4 -5 -5 -5 -4 -4 -4 -4 -4 -4 -5 -5 -5 -5 -5 -5 -5 -5 -5 -5 -6 -6 -6 -6 -6 -6 -6 -6 -6 -6
-4 -4 -4 -4 -4 -4 -4 -4 -5 -4 -4 -4 -4 -5 -5 -5 -5 -5 -5 -4 -4 -5 -5 -5 -5 -5 -5 -5 -5 -5 -5 -5 -5 -5 -6 -6 -6 -6 -6 -6 -6 -6
-4 -4 -4 -4 -4 -4 -4 -4 -4 -4 -4 -4 -5 -5 -5 -5 -5 -5 -5 -5 -5 -5 -5 -5 -5 -5 -5 -5 -5 -5 -5 -5 -5 -5 -5 -6 -6 -6 -6 -6 -6 -6
-4 -4 -4 -4 -4 -4 -4 -4 -4 -4 -4 -4 -4 -5 -5 -5 -5 -5 -5 -5 -5 -5 -5 -5 -5 -5 -5 -5 -5 -5 -5 -5 -5 -5 -5 -5 -6 -6 -6 -6 -6 -6
-4 -4 -4 -4 -4 -4 -4 -4 -4 -4 -4 -4 -4 -4 -5 -5 -5 -5 -5 -5 -5 -5 -5 -5 -5 -5 -5 -5 -5 -5 -5 -5 -5 -5 -5 -5 -5 -6 -6 -6 -6 -6
-4 -4 -4 -4 -4 -4 -4 -4 -4 -4 -4 -4 -4 -4 -4 -5 -5 -5 -5 -5 -5 -5 -5 -5 -5 -5 -5 -5 -5 -5 -5 -5 -5 -5 -5 -5 -5 -5 -6 -6 -6 -6
-4 -4 -4 -4 -4 -4 -4 -4 -4 -4 -4 -4 -4 -4 -4 -4 -5 -5 -5 -5 -5 -5 -5 -5 -5 -5 -5 -5 -5 -5 -5 -5 -5 -5 -5 -5 -5 -5 -6 -6 -6 -6
-4 -4 -4 -4 -4 -4 -4 -4 -4 -4 -4 -4 -4 -4 -4 -4 -4 -5 -5 -5 -5 -5 -5 -5 -5 -5 -5 -5 -5 -5 -5 -5 -5 -5 -5 -5 -5 -5 -6 -6 -6 -6
-5 -5 -4 -4 -4 -4 -4 -4 -4 -4 -4 -4 -4 -4 -4 -4 -4 -4 -5 -5 -5 -5 -5 -5 -4 -5 -5 -5 -5 -5 -5 -5 -5 -5 -5 -5 -5 -5 -5 -6 -6 -6
-5 -5 -5 -5 -4 -4 -4 -4 -4 -4 -4 -4 -4 -4 -4 -4 -4 -4 -4 -4 -4 -4 -4 -4 -4 -5 -5 -5 -5 -5 -5 -5 -5 -5 -5 -5 -5 -5 -5 -6 -6 -6
-5 -5 -5 -5 -5 -5 -5 -5 -4 -4 -4 -4 -4 -4 -4 -4 -4 -4 -4 -4 -4 -4 -4 -4 -4 -5 -5 -5 -5 -5 -5 -5 -5 -5 -5 -5 -5 -5 -5 -5 -5 -5
-5 -5 -5 -5 -5 -5 -5 -5 -5 -4 -4 -4 -4 -4 -4 -5 -5 -4 -4 -4 -4 -4 -4 -4 -4 -5 -5 -5 -5 -5 -5 -5 -5 -5 -5 -5 -5 -5 -5 -5 -5 -5
-5 -5 -5 -5 -5 -5 -5 -5 -5 -4 -4 -4 -4 -5 -5 -5 -5 -5 -5 -4 -4 -4 -4 -4 -4 -5 -5 -5 -5 -5 -5 -5 -5 -5 -5 -5 -5 -5 -5 -5 -5 -5
-5 -5 -5 -5 -5 -5 -5 -5 -5 -5 -5 -4 -5 -5 -5 -5 -5 -5 -5 -5 -5 -5 -4 -4 -4 -4 -5 -5 -5 -5 -5 -5 -5 -5 -5 -5 -5 -5 -5 -5 -5 -5
-5 -5 -5 -5 -5 -5 -5 -5 -5 -5 -5 -5 -5 -5 -5 -5 -5 -5 -5 -5 -5 -5 -5 -4 -4 -4 -5 -5 -5 -5 -5 -5 -5 -5 -5 -5 -5 -5 -5 -5 -5 -4
-6 -6 -5 -5 -5 -5 -5 -5 -5 -5 -5 -5 -5 -5 -5 -5 -5 -5 -5 -5 -5 -5 -5 -5 -4 -5 -5 -5 -5 -5 -5 -5 -5 -5 -5 -5 -5 -5 -5 -5 -5 -5
-6 -6 -6 -5 -5 -5 -5 -5 -5 -5 -5 -5 -5 -5 -5 -5 -5 -5 -5 -5 -5 -5 -5 -5 -5 -5 -5 -5 -5 -5 -5 -5 -5 -5 -5 -5 -5 -5 -5 -5 -5 -5
-6 -6 -6 -6 -5 -5 -5 -5 -5 -5 -5 -5 -5 -5 -5 -5 -5 -5 -5 -5 -5 -5 -5 -5 -5 -5 -5 -5 -5 -5 -5 -5 -5 -5 -5 -5 -6 -6 -5 -5 -5 -5
-6 -6 -6 -6 -6 -6 -6 -5 -5 -5 -5 -5 -5 -5 -5 -5 -5 -5 -5 -5 -5 -5 -5 -5 -5 -5 -5 -5 -5 -5 -5 -5 -5 -5 -5 -5 -6 -5 -5 -5 -5 -5
-6 -6 -6 -6 -6 -6 -6 -5 -5 -5 -5 -5 -5 -5 -5 -5 -5 -5 -5 -5 -5 -5 -5 -5 -5 -5 -5 -5 -5 -5 -5 -5 -5 -5 -5 -5 -6 -5 -5 -5 -5 -5
-6 -6 -6 -6 -6 -6 -6 -5 -5 -5 -5 -5 -5 -5 -5 -5 -5 -5 -5 -5 -5 -5 -5 -5 -5 -5 -5 -5 -5 -5 -5 -5 -5 -5 -5 -6 -6 -6 -5 -5 -6 -5
Height
5935 5937 5939 5940 5941 5942 5944 5945 5946 5947 5948 5949 5950 5951 5953 5954 5955 5957 5957 5958 5959 5960 5960 5961 5962 5962 5962 5963 5963 5963 5964 5964 5964 5964 5965 5965 5966 5966 5966 5966 5966 5965
5935 5937 5938 5939 5941 5942 5943 5945 5946 5947 5948 5949 5950 5951 5953 5954 5955 5956 5957 5958 5959 5960 5960 5961 5962 5962 5963 5963 5963 5964 5964 5964 5965 5965 5965 5966 5966 5966 5967 5967 5966 5966
5934 5936 5937 5939 5940 5942 5943 5944 5945 5947 5948 5949 5950 5952 5952 5953 5955 5956 5957 5958 5959 5959 5960 5961 5962 5962 5963 5963 5964 5964 5964 5965 5965 5966 5966 5966 5967 5967 5967 5967 5967 5967
5933 5935 5937 5938 5939 5940 5942 5943 5945 5946 5948 5949 5950 5951 5952 5953 5954 5955 5956 5957 5958 5959 5960 5961 5962 5962 5963 5963 5964 5964 5965 5965 5965 5966 5966 5967 5967 5967 5968 5968 5968 5967
5932 5934 5935 5937 5938 5940 5941 5943 5944 5946 5947 5948 5949 5950 5952 5953 5953 5954 5956 5956 5957 5959 5960 5961 5962 5963 5963 5964 5964 5964 5965 5965 5966 5966 5966 5967 5967 5967 5968 5968 5968 5968
5930 5932 5934 5936 5937 5939 5941 5942 5943 5945 5946 5947 5948 5950 5951 5952 5953 5954 5955 5956 5957 5958 5960 5961 5962 5962 5963 5964 5964 5964 5965 5965 5966 5966 5966 5967 5967 5967 5967 5968 5968 5968
5929 5931 5933 5934 5936 5938 5940 5941 5942 5944 5945 5946 5947 5949 5950 5951 5952 5953 5954 5955 5957 5958 5959 5960 5961 5962 5963 5963 5964 5964 5965 5965 5965 5966 5966 5967 5967 5967 5967 5967 5968 5968
5927 5929 5931 5933 5935 5937 5938 5940 5941 5943 5944 5945 5947 5948 5949 5950 5951 5952 5953 5955 5956 5957 5959 5960 5961 5961 5962 5963 5963 5964 5964 5965 5965 5966 5966 5966 5967 5967 5967 5967 5967 5967
5925 5927 5930 5932 5934 5935 5937 5938 5940 5941 5943 5945 5946 5947 5948 5949 5950 5951 5952 5954 5955 5956 5958 5959 5960 5961 5962 5962 5963 5964 5964 5964 5965 5965 5966 5966 5966 5967 5967 5967 5967 5967
5923 5926 5928 5930 5932 5934 5936 5937 5938 5940 5941 5943 5945 5946 5947 5948 5949 5950 5951 5953 5954 5955 5957 5958 5959 5960 5961 5962 5962 5963 5964 5964 5964 5965 5965 5965 5965 5966 5966 5966 5966 5966
5921 5924 5926 5929 5931 5932 5934 5935 5937 5938 5940 5941 5943 5944 5946 5947 5948 5949 5950 5952 5953 5954 5955 5956 5958 5959 5960 5961 5962 5963 5963 5963 5964 5964 5964 5965 5965 5965 5965 5965 5966 5966
5920 5922 5925 5927 5929 5930 5932 5934 5935 5937 5938 5940 5941 5943 5944 5945 5947 5948 5949 5950 5951 5952 5954 5955 5956 5958 5959 5960 5961 5962 5962 5963 5963 5963 5963 5964 5964 5964 5964 5964 5965 5965
5918 5920 5923 5925 5926 5928 5930 5932 5934 5936 5937 5938 5940 5941 5942 5944 5945 5946 5947 5948 5949 5950 5952 5953 5955 5956 5957 5959 5960 5961 5961 5961 5962 5962 5962 5963 5963 5963 5963 5963 5963 5964
5916 5918 5920 5922 5924 5926 5928 5930 5932 5934 5936 5937 5939 5940 5941 5942 5943 5944 5946 5946 5947 5949 5950 5952 5953 5955 5956 5957 5958 5959 5960 5960 5960 5961 5961 5962 5962 5962 5962 5962 5962 5962
5914 5916 5917 5919 5921 5923 5925 5928 5930 5932 5934 5935 5937 5938 5939 5940 5941 5943 5944 5945 5946 5948 5949 5950 5952 5953 5954 5956 5956 5957 5958 5959 5959 5960 5960 5960 5961 5961 5961 5961 5961 5961
5912 5914 5915 5917 5919 5921 5923 5925 5927 5929 5931 5933 5935 5936 5938 5939 5940 5941 5943 5944 5944 5946 5947 5949 5950 5951 5953 5954 5954 5956 5957 5957 5958 5959 5959 5959 5960 5960 5960 5960 5960 5960
5910 5912 5914 5915 5917 5919 5921 5922 5924 5926 5928 5931 5933 5934 5936 5937 5938 5939 5941 5942 5943 5944 5946 5947 5949 5950 5951 5952 5953 5954 5955 5956 5957 5957 5958 5958 5958 5959 5959 5959 5959 5959
5908 5910 5912 5913 5915 5917 5919 5920 5922 5924 5926 5928 5930 5932 5933 5935 5936 5938 5939 5940 5941 5943 5944 5946 5947 5948 5949 5950 5951 5953 5954 5955 5956 5956 5956 5957 5957 5957 5957 5958 5958 5957
5905 5907 5909 5911 5913 5915 5916 5918 5920 5922 5924 5926 5928 5929 5931 5933 5934 5935 5936 5938 5939 5941 5942 5944 5945 5946 5948 5948 5949 5951 5952 5953 5954 5954 5955 5955 5956 5956 5956 5956 5956 5956
5903 5905 5907 5909 5911 5913 5914 5916 5918 5920 5922 5924 5925 5926 5928 5930 5932 5933 5934 5935 5937 5938 5940 5941 5943 5944 5946 5946 5947 5949 5951 5952 5952 5953 5953 5954 5954 5954 5954 5954 5954 5954
5900 5902 5904 5906 5908 5910 5912 5914 5916 5918 5920 5921 5923 5924 5926 5928 5929 5930 5932 5933 5934 5936 5937 5939 5940 5942 5943 5944 5945 5947 5949 5950 5951 5951 5952 5952 5952 5952 5952 5953 5953 5953
5898 5900 5901 5903 5905 5907 5910 5912 5913 5915 5917 5918 5920 5921 5923 5925 5926 5927 5929 5930 5932 5933 5935 5936 5937 5939 5940 5941 5943 5945 5947 5948 5949 5949 5950 5950 5950 5950 5950 5950 5951 5951
5896 5897 5899 5901 5903 5905 5906 5908 5910 5912 5914 5915 5917 5918 5920 5922 5923 5924 5926 5927 5929 5931 5932 5933 5934 5936 5938 5938 5940 5942 5944 5946 5947 5947 5947 5948 5948 5948 5948 5948 5948 5948
5893 5895 5897 5898 5900 5902 5904 5905 5907 5909 5911 5912 5913 5915 5916 5918 5920 5921 5923 5924 5926 5928 5929 5930 5931 5933 5935 5936 5937 5940 5942 5943 5944 5945 5945 5945 5945 5945 5945 5946 5946 5946
5891 5892 5894 5896 5898 5899 5900 5902 5903 5905 5907 5908 5910 5911 5913 5914 5916 5918 5919 5921 5923 5924 5926 5927 5928 5930 5932 5933 5935 5937 5939 5940 5941 5942 5942 5942 5942 5942 5943 5943 5943 5943
5888 5889 5891 5893 5895 5896 5897 5898 5900 5901 5903 5905 5906 5908 5909 5911 5913 5914 5916 5918 5920 5921 5923 5924 5926 5927 5930 5931 5932 5934 5936 5937 5938 5939 5939 5939 5939 5939 5940 5940 5940 5940
Wind_Speed
24 21 19 19 20 20 19 18 17 16 15 14 14 13 12 11 11 11 11 11 11 10 9 8 7 7 6 5 4 4 4 3 2 2 1 1 1 1 2 2 2 3
25 23 21 21 20 20 20 19 18 17 16 16 15 14 13 13 12 12 12 11 11 10 9 9 8 7 6 6 5 5 4 4 3 3 2 2 2 2 2 3 2 2
26 24 23 22 21 20 20 20 19 19 18 17 16 15 14 14 14 13 12 12 11 11 10 9 8 8 7 7 7 6 4 4 3 2 2 2 3 3 3 4 4 3
27 25 24 24 22 21 21 20 20 20 19 18 17 17 16 16 15 14 13 13 12 12 11 10 9 8 8 8 7 6 4 3 2 1 1 2 2 3 4 4 5 5
29 27 26 25 23 22 21 20 20 21 20 19 19 19 18 17 17 16 15 14 13 12 11 10 10 9 9 8 7 6 4 2 1 1 2 2 3 4 4 5 6 6
30 28 28 27 25 22 21 20 21 22 22 22 21 20 20 19 19 17 16 15 14 13 12 11 11 10 9 8 7 6 4 3 3 4 4 4 5 5 6 6 7 7
32 30 30 29 26 24 22 21 22 22 23 23 22 21 21 21 20 19 18 17 15 15 14 13 12 11 10 9 8 7 6 5 5 6 6 6 6 6 7 7 8 8
34 33 31 30 28 26 24 23 22 23 23 23 23 23 23 23 22 21 20 18 17 16 15 14 14 13 12 11 10 9 8 7 7 7 7 8 7 8 8 8 8 9
35 34 32 31 30 28 26 25 24 24 24 24 24 24 24 25 24 23 22 20 19 18 17 16 15 15 14 13 12 10 9 9 9 8 8 9 9 9 8 9 9 9
36 35 33 32 31 30 28 27 26 25 25 25 25 25 25 26 25 24 23 22 20 20 19 18 17 16 15 14 13 12 11 11 10 10 10 10 10 9 9 10 10 10
35 35 34 33 33 32 31 29 28 27 27 27 27 26 26 27 26 25 24 23 22 22 21 20 19 18 16 15 14 13 12 12 12 12 12 11 11 10 10 10 10 10
33 33 33 33 33 33 33 31 30 28 28 28 28 27 27 28 28 27 26 25 24 23 22 21 20 19 17 16 15 14 13 13 13 14 13 12 12 11 11 11 11 11
30 30 31 32 33 34 34 33 31 29 29 29 29 28 29 29 29 28 27 27 26 25 23 21 20 19 19 18 16 15 15 15 15 15 14 13 12 11 11 12 12 12
29 29 29 31 32 33 34 34 32 31 30 29 29 29 29 29 29 29 29 28 27 25 23 22 21 20 20 19 18 17 17 17 16 16 16 14 12 11 11 12 13 13
29 29 29 30 32 33 33 34 34 33 32 30 29 29 29 30 30 30 29 29 28 26 24 22 21 21 21 20 20 19 19 18 17 17 16 15 14 12 11 12 13 13
30 30 30 30 31 32 33 33 34 35 33 32 31 30 30 30 30 30 30 30 29 27 25 23 22 23 23 23 22 20 20 19 18 17 17 16 15 13 12 13 14 14
31 31 30 30 31 31 32 33 34 35 35 34 33 32 31 30 30 30 30 30 30 29 27 25 24 24 24 25 24 22 20 19 18 18 17 16 16 15 14 13 14 14
33 32 31 31 31 31 31 32 33 34 34 34 34 33 32 31 31 30 30 31 31 30 29 27 25 25 25 26 25 23 21 20 19 18 17 17 16 16 15 14 14 14
33 33 32 32 32 31 31 32 32 33 33 33 34 34 34 32 31 31 31 31 30 30 30 29 27 26 26 27 27 24 22 20 19 18 18 17 17 16 16 15 14 14
30 32 33 33 32 32 32 32 31 31 32 33 34 34 34 33 33 32 32 31 31 30 30 30 28 27 27 28 27 25 23 21 19 18 18 17 17 17 17 15 15 15
27 29 31 33 33 32 32 31 31 31 31 32 33 34 34 33 34 34 33 32 32 31 30 30 29 28 27 28 28 26 24 21 19 18 18 18 18 18 18 16 15 15
25 27 28 30 31 32 32 32 31 31 31 32 32 33 34 34 35 35 34 33 33 31 30 30 30 28 28 29 29 27 24 21 19 19 19 18 18 19 18 17 16 15
25 26 25 26 28 30 32 32 32 31 31 32 32 33 33 33 34 34 34 34 33 31 30 30 30 29 28 29 28 26 23 21 19 20 20 19 19 19 19 18 16 15
26 26 25 24 24 27 29 31 32 32 31 32 32 33 33 33 33 34 34 33 33 31 30 30 29 28 28 28 27 25 24 21 20 20 21 20 20 20 20 18 17 16
26 26 26 24 23 24 27 29 31 32 32 33 32 32 33 33 33 33 33 32 32 31 30 29 29 28 27 27 26 25 24 22 21 22 22 22 22 22 20 19 17 17
26 27 27 24 23 25 27 28 29 32 33 33 32 32 32 32 32 32 32 32 31 30 29 28 28 28 26 26 26 25 24 24 23 23 23 23 23 23 21 20 18 18
Wind_Direction
206 202 199 199 200 200 200 198 196 196 194 192 191 187 185 189 192 192 191 188 190 194 197 200 199 196 194 187 178 172 173 179 171 148 135 99 21 340 331 318 311 309
208 202 199 201 202 202 201 200 198 197 195 194 191 187 188 193 196 197 198 197 196 199 202 202 199 191 185 175 163 157 152 147 132 118 102 80 62 38 28 24 15 352
209 203 201 203 204 204 204 201 199 198 197 196 192 188 193 198 199 201 202 200 199 200 201 200 193 183 175 165 157 153 148 140 126 109 90 68 55 38 31 34 33 20
210 204 202 205 205 205 205 202 200 200 200 198 194 193 197 201 203 204 202 201 199 198 198 195 189 180 172 166 161 158 156 152 143 108 49 26 19 12 12 18 20 15
212 206 205 207 208 208 206 203 202 202 202 201 198 197 200 203 206 205 204 202 199 197 196 193 188 182 175 172 170 170 177 193 224 274 315 329 335 339 345 353 357 358
215 210 207 208 210 210 208 205 205 205 203 203 201 199 201 206 208 207 205 204 201 198 197 195 192 187 184 184 185 189 202 223 251 272 290 302 311 318 324 331 336 340
217 214 211 210 211 210 209 208 209 208 206 206 204 201 204 207 209 209 207 206 203 200 200 199 198 195 194 196 200 207 220 236 256 271 283 292 298 304 309 314 319 324
219 217 214 213 212 211 210 210 211 211 210 209 208 205 206 208 210 211 210 208 205 204 204 204 204 205 204 206 211 219 229 241 256 269 277 286 292 297 300 303 306 311
221 219 217 216 215 213 211 210 211 213 212 212 212 211 210 211 212 212 213 211 209 209 210 209 211 213 213 215 218 223 232 243 256 267 274 279 286 291 294 294 297 302
223 222 220 219 219 217 215 212 211 213 214 214 214 214 214 215 216 216 216 215 214 214 215 215 216 219 221 222 223 225 232 244 255 265 272 276 280 285 288 288 290 294
226 225 223 221 221 221 219 216 213 213 214 214 215 216 217 218 219 219 219 219 218 218 219 218 219 221 224 227 227 228 234 244 255 263 269 273 277 282 285 285 286 289
228 227 226 224 224 224 224 222 218 215 215 215 216 217 218 220 221 222 222 222 221 221 221 221 222 223 226 229 230 231 236 245 253 261 267 271 276 281 284 285 286 288
230 229 227 227 227 227 227 226 223 220 219 219 218 218 219 221 223 224 225 225 225 225 224 224 224 225 227 229 231 232 237 244 252 259 265 269 274 281 284 287 287 288
231 230 228 227 227 228 229 229 227 225 223 223 222 221 222 223 225 226 227 228 229 228 227 227 227 227 228 231 232 234 238 243 250 258 264 268 273 280 285 286 287 287
232 231 229 229 228 228 229 230 230 228 227 227 226 226 226 225 226 228 229 231 233 232 231 230 229 229 230 232 234 235 238 244 251 258 263 267 271 277 282 284 284 284
234 233 231 231 230 230 230 230 230 230 229 229 229 230 230 229 230 230 230 232 234 235 234 233 232 231 231 233 236 236 239 245 252 257 262 266 270 275 279 280 281 280
236 236 235 234 233 233 233 232 232 231 230 231 231 232 234 234 235 234 234 235 236 237 236 235 234 233 232 234 237 238 240 245 251 257 262 267 270 274 279 281 280 277
238 238 238 237 237 236 236 235 234 233 232 232 233 234 235 237 238 239 239 239 239 239 239 238 237 236 234 236 238 239 241 245 251 257 262 266 269 273 279 283 280 274
241 241 241 240 240 239 239 238 238 236 235 234 235 236 236 237 239 241 243 243 243 243 242 241 240 239 237 238 239 240 242 246 251 257 262 266 268 272 277 281 278 271
242 243 243 243 242 242 242 242 242 241 239 238 238 238 237 237 239 241 243 246 246 246 245 244 243 241 240 240 241 241 243 246 252 258 264 268 268 270 274 277 274 269
243 244 245 245 245 245 244 244 245 244 243 243 242 242 241 240 240 241 243 245 247 247 247 247 245 243 242 242 241 241 243 246 252 259 265 268 268 268 271 274 273 268
244 245 246 246 247 248 247 246 245 245 245 245 245 245 244 244 243 243 244 245 247 247 248 247 246 244 243 242 241 240 242 246 252 258 264 266 266 267 269 272 272 268
245 246 247 247 247 248 249 248 247 245 245 246 247 247 247 247 247 247 246 246 247 247 246 246 245 244 243 243 241 240 241 244 250 256 262 264 263 264 267 269 270 268
246 248 247 246 247 249 249 249 248 246 245 245 246 248 249 249 248 248 247 247 247 246 245 244 244 243 243 243 243 241 240 244 250 255 259 262 262 262 264 267 267 264
245 248 248 248 249 250 249 248 248 247 246 245 245 247 248 249 249 249 248 247 246 245 243 242 243 243 243 244 244 243 242 244 249 254 258 260 261 261 263 264 264 261
244 247 248 248 249 250 249 247 246 246 245 245 245 246 248 249 250 248 246 245 244 243 241 241 242 243 243 244 244 243 243 245 249 254 258 260 260 262 263 263 261 258